#timestamp,LO_Frequency,Hit 
1500710415.7,286046994.6,N
1500710435.6,286046997.7,N
1500710455.4,286046998.3,N
1500710475.2,286046998.1,N
1500710495.1,286046998.5,N
1500710496.0,286046998.5,N
1500710515.8,286047002.0,N
1500710535.6,286047004.5,N
1500710555.5,286047008.7,N
1500710575.3,286047009.9,N
1500710595.1,286047003.2,N
1500710615.9,286046999.2,N
1500710635.7,286046997.3,N
1500710655.5,286046991.7,N
1500710675.4,286046987.7,N
1500710695.2,286046984.0,N
1500710715.0,286046983.8,N
1500710715.9,286046983.8,N
1500710735.8,286046982.5,N
1500710755.6,286046983.4,N
1500710775.4,286046982.0,N
1500710795.3,286046976.8,N
1500710815.1,286046980.6,N
1500710835.8,286046983.7,N
1500710855.7,286046978.8,N
1500710875.5,286046969.4,N
1500710895.3,286046972.3,N
1500710915.2,286046971.8,N
1500710935.9,286046975.6,N
1500710955.7,286046974.5,N
1500710975.6,286046982.0,N
1500710995.4,286046988.5,N
1500711015.2,286047002.3,N
1500711035.1,286047015.5,N
1500711036.0,286047015.5,N
1500711055.8,286047023.5,N
1500711075.6,286047022.8,N
1500711095.5,286047016.1,N
1500711115.3,286047025.8,N
1500711135.1,286047027.6,N
1500711155.8,286047023.0,N
1500711175.7,286047020.2,N
1500711195.5,286047019.1,N
1500711215.3,286047033.2,N
1500711235.2,286047027.5,N
1500711255.0,286047019.4,N
1500711255.9,286047019.4,N
1500711275.7,286047021.0,N
1500711295.6,286047013.0,N
1500711315.4,286047007.3,N
1500711335.2,286047001.9,N
1500711355.1,286047004.6,N
1500711356.0,286047004.6,N
1500711375.8,286047012.2,N
1500711395.6,286047018.3,N
1500711415.5,286047021.3,N
1500711435.3,286047026.4,N
1500711455.1,286047028.9,N
1500711475.9,286047053.9,N
1500711495.7,286047047.9,N
1500711515.5,286047047.6,N
1500711535.4,286047050.5,N
1500711555.2,286047043.7,N
1500711575.0,286047050.0,N
1500711575.9,286047050.0,N
1500711595.8,286047042.5,N
1500711615.6,286047046.7,N
1500711635.4,286047042.0,N
1500711655.3,286047039.9,N
1500711675.1,286047046.1,N
1500711676.0,286047046.1,N
1500711695.8,286047039.7,N
1500711715.7,286047041.8,N
1500711735.5,286047051.2,N
1500711755.3,286047052.0,N
1500711775.2,286047051.3,N
1500711795.9,286047044.6,N
1500711815.7,286047047.3,N
1500711835.6,286047052.6,N
1500711855.4,286047073.7,Y
1500711875.2,286047047.3,N
1500711895.1,286047045.5,N
1500711896.0,286047045.5,N
1500711915.8,286047043.1,N
1500711935.6,286047047.5,N
1500711955.5,286047045.5,N
1500711975.3,286047045.9,N
1500711995.1,286047029.1,N
1500712015.9,286047017.0,N
1500712035.7,286047008.9,N
1500712055.5,286047004.1,N
1500712075.4,286047002.5,N
1500712095.2,286046996.9,N
1500712115.0,286046997.8,N
1500712115.9,286046997.8,N
1500712135.8,286046984.3,N
1500712155.6,286046972.6,N
1500712175.4,286046966.7,N
1500712195.2,286046959.7,N
1500712215.1,286046957.2,N
1500712216.0,286046957.2,N
1500712235.8,286046952.4,N
1500712255.6,286046942.5,N
1500712275.5,286046945.2,N
1500712295.3,286046950.0,N
1500712315.1,286046955.3,N
1500712335.9,286046972.4,N
1500712355.7,286046966.2,N
1500712375.5,286046972.6,N
1500712395.4,286046979.8,N
1500712415.2,286046988.1,N
1500712435.0,286046982.5,N
1500712435.9,286046982.5,N
1500712455.8,286046979.3,N
1500712475.6,286046976.2,N
1500712495.4,286046969.3,N
1500712515.3,286046967.5,N
1500712535.1,286046960.8,N
1500712555.8,286046953.5,N
1500712575.7,286046949.6,N
1500712595.5,286046944.3,N
1500712615.3,286046944.6,N
1500712635.2,286046950.0,N
1500712655.9,286046942.8,N
1500712675.7,286046940.4,N
1500712695.6,286046940.6,N
1500712715.4,286046943.5,N
1500712735.2,286046949.9,N
1500712755.0,286046952.0,N
1500712756.0,286046952.0,N
1500712775.8,286046950.5,N
1500712795.6,286046950.1,N
1500712815.5,286046954.6,N
1500712835.3,286046956.4,N
1500712855.1,286046959.4,N
1500712875.8,286046956.5,N
1500712895.7,286046960.9,N
1500712915.5,286046960.4,N
1500712935.3,286046961.7,N
1500712955.2,286046970.8,N
1500712975.0,286046962.1,N
1500712975.9,286046962.1,N
1500712995.7,286046972.0,N
1500713015.6,286046971.9,N
1500713035.4,286046958.7,N
1500713055.2,286046967.9,N
1500713075.1,286046978.3,N
1500713076.0,286046978.3,N
1500713095.8,286046973.0,N
1500713115.6,286046978.0,N
1500713135.5,286046970.4,N
1500713155.3,286046965.8,N
1500713175.1,286046966.6,N
1500713195.9,286046969.8,N
1500713215.7,286046973.2,N
1500713235.5,286046966.2,N
1500713255.4,286046961.3,N
1500713275.2,286046961.3,N
1500713295.0,286046963.8,N
1500713295.9,286046963.8,N
1500713315.8,286046961.3,N
1500713335.6,286046961.1,N
1500713355.4,286046964.5,N
1500713375.3,286046974.3,N
1500713395.1,286046965.3,N
1500713415.8,286046970.4,N
1500713435.7,286046974.9,N
1500713455.5,286046973.7,N
1500713475.3,286046978.0,N
1500713495.2,286046978.1,N
1500713515.9,286046981.6,N
1500713535.7,286046973.4,N
1500713555.6,286046971.7,N
1500713575.4,286046968.5,N
1500713595.2,286046964.5,N
1500713615.1,286046962.5,N
1500713616.0,286046962.5,N
1500713635.8,286046959.2,N
1500713655.6,286046952.2,N
1500713675.5,286046947.7,N
1500713695.3,286046946.0,N
1500713715.1,286046944.8,N
1500713735.8,286046943.0,N
1500713755.7,286046941.6,N
1500713775.5,286046945.4,N
1500713795.3,286046947.0,N
1500713815.2,286046941.0,N
1500713835.0,286046935.6,N
1500713835.9,286046935.6,N
1500713855.7,286046927.2,N
1500713875.6,286046925.9,N
1500713895.4,286046919.0,N
1500713915.2,286046913.9,N
1500713935.1,286046916.3,N
1500713936.0,286046916.3,N
1500713955.8,286046919.5,N
1500713975.6,286046922.2,N
1500713995.5,286046925.0,N
